Regional Weather Roundup
Issued by NWS

Home | Current Version | Previous Version | Text Only | Print | Product List | Glossary Off
Versions: 1 2 3 4 5 6 7 8 9 10 11 12 13 14 15 16 17 18 19 20 21 22 23 24 25 26 27 28 29 30 31 32 33 34 35 36 37 38 39 40 41 42 43 44 45 46 47 48 49 50

000
ASUS43 KMPX 251910
RWRMN
WEATHER ROUNDUP FOR MINNESOTA
NATIONAL WEATHER SERVICE TWIN CITIES/CHANHASSEN MN
200 PM CDT FRI MAY 25 2018


NOTE: "FAIR" INDICATES FEW OR NO CLOUDS BELOW 12,000 FEET WITH NO
SIGNIFICANT WEATHER AND/OR OBSTRUCTIONS TO VISIBILITY. N/A MEANS
CURRENT SKY AND/OR WEATHER CONDITIONS ARE NOT AVAILABLE.

MNZ060>063-068>070-252000-
   Twin Cities Metro

CITY           SKY/WX    TMP DP  RH WIND       PRES   REMARKS
TWIN CITIES    FAIR      86  65  49 SW8       29.75F
ST PAUL        FAIR      84  68  58 SW10      29.74F
CRYSTAL        FAIR      86  64  47 S8        29.73F
BLAINE         MOSUNNY   86  64  48 SW9G16    29.74F
LAKEVILLE      FAIR      84  64  51 W7        29.76F
EDEN PRAIRIE   FAIR      85  66  53 S8        29.75F
SOUTH ST PAUL  FAIR      84  66  55 S7        29.75F
LAKE ELMO      FAIR      82  70  65 S12       29.76F
$$
MNZ001>005-007-008-013>017-022>024-027-028-252000-
   Northwest Minnesota

CITY           SKY/WX    TMP DP  RH WIND       PRES   REMARKS
BEMIDJI        PTSUNNY   85  55  36 W13G22    29.68F
HALLOCK        FAIR      88  55  33 SW12G18   29.60F
ROSEAU         FAIR      82  63  51 SW13      29.63F
WARROAD        FAIR      81  63  54 W13       29.63F
THIEF RVR FALL FAIR      84  58  40 SW9       29.66F
CROOKSTON      FAIR      88  52  29 W14G20    29.64F
FOSSTON        FAIR      86  48  26 W15G24    29.68S
DETROIT LAKES  FAIR      88  46  23 SW12      29.71F
MOORHEAD       FAIR      90  46  22 W7G20     29.67F
PARK RAPIDS    FAIR      86  56  35 W9G25     29.70F
MAHNOMEN       FAIR      88  47  23 W20G25    29.68S
$$
MNZ006-009>011-018-025>026-252000-
   North Central Minnesota

CITY           SKY/WX    TMP DP  RH WIND       PRES   REMARKS
BAUDETTE       FAIR      85  57  38 W13       29.63F
FLAG ISLAND    PTSUNNY   72  57  60 S9        29.61F
INTL FALLS     FAIR      84  56  38 W10G20    29.64S
WASKISH        FAIR      81  63  54 SW6       29.67S
BIG FORK       FAIR      82  55  39 W7        29.67F
LONGVILLE      FAIR      86  55  35 SW9       29.70F
GRAND RAPIDS   FAIR      83  58  42 W10       29.71F
ORR            FAIR      82  54  36 W7        29.64S
COOK           FAIR      82  55  39 SW9G16    29.68S
WALKER         FAIR      84  56  38 SW12G20   29.69F
$$
MNZ012-019>021-037-252000-
   Northeast Minnesota

CITY           SKY/WX    TMP DP  RH WIND       PRES   REMARKS
DULUTH         FAIR      86  60  41 W18G24    29.69F
ELY            PTSUNNY   81  54  39 W10G21    29.67S
HIBBING        FAIR      83  56  39 W12G20    29.68F
EVELETH        FAIR      82  57  42 W10G23    29.70S
DULUTH HARBOR  FAIR      84  66  54 W14       29.66F
TWO HARBORS    FAIR      84  66  54 S15       29.65F
SILVER BAY     FAIR      84  63  48 S16G22    29.64F
GRAND MARAIS     N/A     43  40  89 SW7       29.65F
G MARAIS ARPRT FAIR      77  57  50 S10       29.70F
$$
MNZ029>031-032-039>041-046>048-054>057-064-252000-
   West Central Minnesota

CITY           SKY/WX    TMP DP  RH WIND       PRES   REMARKS
FERGUS FALLS   FAIR      90  54  29 W13G24    29.65F
MORRIS         LGT RAIN  84  55  37 NW9G23    29.71F
ALEXANDRIA     FAIR      86  57  37 W9        29.75F
ELBOW LAKE     FAIR      86  54  33 W15G23    29.71F
WADENA         FAIR      84  57  39 W13G22    29.72F
GLENWOOD       LGT RAIN  84  61  45 SW12      29.75F
BENSON         SUNNY     90  55  31 NW16G23   29.73F
ORTONVILLE     MOSUNNY   88  52  29 W10G21    29.73F
MADISON        MOSUNNY   91  50  24 W20G25    29.73F
WILLMAR        FAIR      90  54  29 NW16G22   29.75F
$$
MNZ033>034-036-042>043-049>051-058-059-252000-
   Central Minnesota

CITY           SKY/WX    TMP DP  RH WIND       PRES   REMARKS
ST CLOUD       FAIR      89  52  28 W10G26    29.72F
SAUK CENTRE    FAIR      86  58  38 W12       29.74F
PAYNESVILLE    FAIR      88  56  34 W14       29.74F
AITKIN         FAIR      84  57  39 SW7G18    29.70F
PINE RIVER     FAIR      82  55  39 SW9       29.74F
BRAINERD       FAIR      87  56  34 W10       29.71F
STAPLES        FAIR      88  52  29 W14       29.72F
LONG PRAIRIE   FAIR      86  57  37 SW9G16    29.74F
LITTLE FALLS   FAIR      86  55  35 NW7G16    29.72F
LITCHFIELD     FAIR      90  55  31 NW8       29.74F
BUFFALO        FAIR      84  63  49 SW6       29.74F
MAPLE LAKE     PTSUNNY   90  57  32 NW13      29.74F
HUTCHINSON     FAIR      87  64  46 W8        29.76F
$$
MNZ037-044-045-052-053-252000-
   East Central Minnesota

CITY           SKY/WX    TMP DP  RH WIND       PRES   REMARKS
PRINCETON      FAIR      90  55  31 SW8G16    29.72F
MORA           FAIR      81  57  44 W9        29.73F
CAMBRIDGE      PTSUNNY   86  64  48 W7        29.72F
RUSH CITY      PTSUNNY   84  62  47 SW12G17   29.73F
MOOSE LAKE     FAIR      84  55  37 SW9       29.69F
HINCKLEY       FAIR      84  64  51 SW10G16   29.72F
CLOQUET        FAIR      84  55  37 W9        29.70F
MCGREGOR       FAIR      82  55  39 W8        29.71F
$$
MNZ071>073-080-081-089-090-097-098-252000-
   Southwest Minnesota

CITY           SKY/WX    TMP DP  RH WIND       PRES   REMARKS
MONTEVIDEO     MOSUNNY   91  54  27 NW9       29.74F
GRANITE FALLS  MOSUNNY   90  57  33 SW9       29.76S
CANBY          SUNNY     90  54  28 SW8       29.76F
MARSHALL       SUNNY     88  59  37 NW10      29.76F
REDWOOD FALLS  MOSUNNY   88  58  36 W8        29.74F
OLIVIA         MOSUNNY   88  61  40 SW10G16   29.74F
PIPESTONE      MOSUNNY   90  55  31 NW9G17    29.80F
WINDOM         MOSUNNY   90  55  31 CALM      29.78F
WORTHINGTON    PTSUNNY   88  59  37 SW6       29.80F
JACKSON        SUNNY     86  54  32 NW7       29.80F
TRACY          MOSUNNY   89  54  30 W10       29.77F
SLAYTON        SUNNY     90  52  27 SW12      29.80F
$$
MNZ065>067-074>077-082>085-091>093-252000-
   South Central Minnesota

CITY           SKY/WX    TMP DP  RH WIND       PRES   REMARKS
MANKATO        FAIR      87  55  33 NW10      29.77F
NEW ULM        SUNNY     88  54  31 NW8       29.76F
ST JAMES       SUNNY     90  50  25 W8        29.78F
FAIRMONT       MOSUNNY   87  65  47 NW6       29.79F
GLENCOE        FAIR      85  63  47 SW3       29.75F
FARIBAULT      FAIR      84  66  54 CALM      29.78F
OWATONNA       FAIR      84  66  54 W8        29.78F
WASECA         FAIR      84  61  45 SW9       29.79F
ALBERT LEA     FAIR      84  61  45 SW5       29.79F
$$
MNZ078>079-086>088-094>096-252000-
   Southeast Minnesota

CITY           SKY/WX    TMP DP  RH WIND       PRES   REMARKS
ROCHESTER      PTSUNNY   89  64  43 SW15G28   29.78F HX  90
RED WING       PTSUNNY   82  64  54 CALM      29.75F
STANTON        PTSUNNY   83  68  60 SW9       29.76F
DODGE CENTER   FAIR      84  63  48 SW16      29.79F
WINONA         FAIR      82  64  54 SW9G16    29.77F
AUSTIN         PTSUNNY   84  63  48 SW13      29.79F
PRESTON        FAIR      85  63  47 S15       29.80F
$$
ABBREVIATIONS USED IN REMARKS
   TC - TEMPERATURES IN CELSIUS
  WCI - WIND CHILL INDEX
   HX - HEAT INDEX
  VSB - VISIBILITY
$$




USA.gov is the U.S. government's official web portal to all federal, state and local government web resources and services.